Regional Weather Roundup
Issued by NWS

Home | Current Version | Previous Version | Graphics & Text | Print | Product List | Glossary Off
Versions: 1 2 3 4 5 6 7 8 9 10 11 12 13 14 15 16 17 18 19 20 21 22 23 24 25 26 27 28 29 30 31 32 33 34 35 36 37 38 39 40 41 42 43 44 45 46 47 48 49 50

000
ASUS43 KTOP 190908
RWRKS

WEATHER ROUNDUP FOR KANSAS
NATIONAL WEATHER SERVICE GOODLAND KS
300 AM CST THU JAN 19 2017

NOTE:  "FAIR" INDICATES FEW OR NO CLOUDS BELOW 12,000 FEET WITH NO
SIGNIFICANT WEATHER AND/OR OBSTRUCTIONS TO VISIBILITY.

KSZ001>006-013>018-027>032-041>047-191000-
NORTHWEST KANSAS

CITY           SKY/WX    TMP DP  RH WIND       PRES   REMARKS
GOODLAND       CLOUDY    28  25  88 W6        29.65S
HILL CITY      CLOUDY    43  43 100 S5        29.72S FOG
RUSSELL        CLOUDY    45  43  93 S17       29.73F
$$

KSZ061>065-074>080-084>089-191000-
SOUTHWEST KANSAS

CITY           SKY/WX    TMP DP  RH WIND       PRES   REMARKS
DODGE CITY     CLOUDY    45  43  93 S16       29.71F
ELKHART          N/A     30  22  72 W7          N/A
GARDEN CITY    CLOUDY    42  41  96 S10       29.67F
GREAT BEND     CLOUDY    45  43  93 S15       29.76S
LIBERAL        CLEAR     36  30  80 S5        29.67F
PRATT          CLOUDY    42  41  97 S13G18    29.77F FOG
$$

KSZ066>073-081>083-090>101-191000-
SOUTHEAST KANSAS

CITY           SKY/WX    TMP DP  RH WIND       PRES   REMARKS
CHANUTE        FOG       46  45  96 S7        29.89F VSB 1/4
COFFEYVILLE    CLOUDY    46  45  96 S7        29.90F
HUTCHINSON     CLOUDY    44  41  89 SE9       29.80F
MEDICINE LODGE   N/A     44  43  96 SE9       29.79F
NEWTON         CLOUDY    42  39  89 S12       29.82F
PARSONS        CLOUDY    46  45  96 S7        29.90F FOG
WICHITA INTL   CLOUDY    43  40  89 S13       29.82F
WICHITA JABRA  CLOUDY    43  42  97 S13       29.82F
WICHITA MCCONL CLOUDY    43  41  93 S12       29.83F
WINFIELD       CLOUDY    44  42  93 S7        29.86F
$$

KSZ007>012-019>026-033>040-048>060-102>105-191000-
NORTHEAST KANSAS

CITY           SKY/WX    TMP DP  RH WIND       PRES   REMARKS
CONCORDIA      CLOUDY    41  39  93 SE12      29.79F
EMPORIA        CLOUDY    44  43  96 S10       29.85F
LAWRENCE       CLOUDY    42  42 100 E8        29.89F FOG
MANHATTAN      CLOUDY    45  38  76 E3        29.84F
MARYSVILLE     CLOUDY    41  36  81 S6        29.84S
OLATHE IND     CLOUDY    42  42 100 SE7       29.89F FOG
OLATHE EXE     CLOUDY    41  41 100 SE3       29.89F FOG
SALINA           N/A    N/A N/A N/A MISG        N/A
TOPEKA BILLARD CLOUDY    41  38  89 E5        29.88F
TOPEKA FORBES  CLOUDY    45  41  86 SE7       29.87F
$$




USA.gov is the U.S. government's official web portal to all federal, state and local government web resources and services.